GFSNW_sfc_thetae_132.txt.gz
Theta_e
307 308 308 308 307 306 303 297 288 304 305 293 290 286 291 294 294 298 295 295 291 288 289 287 290 293 298 300 299 293 294 291 286 289 294 297 292 288 290 284 285 289 286 286
307 308 308 308 308 306 301 294 293 304 303 286 287 292 292 294 294 294 294 293 293 294 287 288 292 297 303 301 298 295 292 286 283 285 290 294 289 291 290 293 294 290 286 289
307 307 308 308 308 307 300 297 290 292 295 296 290 288 290 290 297 298 300 297 296 291 289 291 294 298 302 303 300 310 301 291 288 283 288 292 289 291 293 292 287 291 292 294
307 308 308 308 308 306 298 294 289 294 287 290 291 292 290 288 290 296 300 297 294 294 291 292 293 297 299 302 306 300 296 291 294 296 297 297 294 293 295 294 295 291 296 296
307 308 308 308 308 306 296 293 292 295 293 293 291 291 289 289 291 293 295 294 295 295 291 292 291 294 294 293 295 296 298 291 294 292 297 296 295 298 300 300 299 298 299 299
307 308 308 308 308 304 294 299 300 296 292 290 290 289 291 291 295 298 298 297 295 293 295 298 296 298 296 297 295 295 295 293 288 288 294 295 289 294 297 298 301 300 295 301
307 308 308 308 308 307 301 299 298 294 288 291 290 294 294 294 295 293 297 300 296 299 304 302 300 299 300 301 299 299 295 293 288 287 291 282 293 301 303 300 301 302 303 305
307 307 307 308 308 308 302 297 298 295 289 292 293 294 294 296 297 296 297 301 302 303 299 296 295 294 295 298 299 298 298 293 287 286 286 292 296 299 299 296 295 301 303 304
307 307 307 308 308 308 302 297 300 296 292 291 296 294 295 293 293 295 298 303 308 302 297 293 286 286 292 291 295 300 299 297 291 287 284 283 293 302 304 300 290 302 303 301
306 306 306 308 308 308 304 296 298 298 293 296 297 294 293 298 296 293 296 298 301 303 292 289 288 289 296 287 289 292 291 291 288 287 286 290 301 305 305 288 288 301 303 302
304 306 306 308 308 308 305 298 302 300 296 297 300 300 297 299 298 293 296 296 297 296 290 290 291 290 294 292 295 292 291 289 285 290 286 282 303 302 296 297 301 304 304 304
304 305 306 307 308 308 307 293 299 301 298 297 301 302 303 305 303 297 297 296 296 299 293 294 295 293 294 292 287 299 291 295 293 292 293 299 302 301 302 302 300 300 300 300
304 305 306 306 307 308 306 299 299 299 294 295 297 298 304 307 305 304 294 296 299 299 304 298 296 291 295 288 290 295 299 301 295 294 298 298 299 300 301 301 300 301 301 300
304 305 306 306 307 307 307 297 300 297 295 292 294 304 301 306 305 305 303 302 301 302 302 297 295 292 296 292 294 294 297 299 296 295 297 298 299 301 300 301 301 300 300 299
304 305 306 306 307 307 305 300 302 299 295 289 291 298 301 303 304 303 302 301 297 294 294 293 292 295 294 293 293 292 297 295 292 291 296 296 297 300 302 299 299 299 298 297
305 306 306 306 307 307 298 294 300 300 298 295 287 297 299 302 302 301 300 300 296 294 291 290 294 297 294 289 288 296 298 300 299 296 301 300 300 301 300 297 298 298 297 295
305 306 306 307 306 299 294 292 297 303 298 294 288 289 298 300 299 298 297 297 295 294 292 291 292 294 294 291 288 295 297 299 300 302 301 297 298 296 299 299 296 296 294 293
306 306 307 307 307 303 298 301 304 301 295 295 285 289 292 298 293 292 296 293 293 293 290 292 291 293 292 289 295 296 297 297 297 298 298 296 296 296 295 296 295 292 291 290
305 306 308 302 299 294 296 307 307 298 296 289 292 286 285 296 292 293 293 292 287 291 288 290 292 289 289 294 293 295 297 295 293 295 295 294 293 292 292 292 291 290 289 288
306 302 296 291 295 308 306 300 295 295 294 292 288 293 291 295 291 288 290 290 286 284 288 292 289 289 295 296 296 293 294 294 293 291 289 290 290 289 289 289 289 289 288 287
295 290 291 296 304 297 294 289 288 289 287 290 290 292 289 294 289 288 290 284 287 281 285 287 286 287 294 293 292 293 294 293 292 291 290 289 289 288 288 287 288 287 286 285
296 297 299 296 295 291 288 285 289 288 285 291 288 290 292 293 294 289 289 287 289 283 289 285 285 291 291 293 292 293 293 292 290 290 288 288 288 288 287 286 285 285 285 286
302 298 295 291 289 280 286 282 287 286 289 290 290 287 291 292 292 289 288 285 282 290 285 286 288 292 291 291 292 292 292 291 290 289 288 288 287 287 286 285 286 286 284 284
294 289 279 288 289 287 285 286 288 292 293 294 293 288 289 290 288 289 285 287 288 281 283 285 289 290 290 293 293 292 290 290 289 288 288 286 285 284 284 284 285 285 283 282
291 289 283 287 291 291 290 291 290 296 293 294 291 289 290 287 290 290 286 284 282 284 284 290 293 290 292 291 292 291 290 288 288 287 286 286 285 284 283 284 284 284 283 281
295 293 286 293 292 293 291 292 290 293 291 295 292 290 287 285 289 288 284 281 281 286 292 294 290 290 291 291 292 291 290 288 287 286 286 286 284 282 282 283 282 282 282 281
291 287 291 290 290 292 293 294 292 295 292 290 289 286 287 288 284 283 288 285 289 293 295 294 290 291 291 291 292 291 290 288 287 286 285 284 284 284 283 281 283 283 283 283

GFSNW_sfc_thetae_135.txt.gz
Theta_e
307 308 308 308 308 306 303 298 286 299 303 292 292 286 291 294 293 297 295 293 291 289 290 287 290 292 296 301 300 291 293 290 283 288 293 295 289 288 289 282 283 285 282 283
307 307 308 308 308 306 301 294 292 300 300 286 286 291 292 294 293 293 290 289 292 293 288 286 291 296 302 301 298 293 293 285 281 284 289 290 288 288 290 289 288 285 281 284
307 307 307 308 308 306 298 291 286 292 294 296 290 288 290 290 296 296 298 296 294 290 290 292 292 296 302 303 297 307 300 289 286 280 285 289 286 289 293 290 283 287 288 290
307 307 308 308 307 306 296 292 289 295 287 290 291 292 290 290 291 296 299 295 295 294 291 293 291 297 298 300 308 297 293 288 292 293 296 295 292 290 290 290 290 287 293 294
307 307 308 308 307 306 293 289 291 295 292 293 291 291 290 290 293 294 293 293 296 295 291 292 291 293 293 292 295 295 294 288 292 291 295 296 294 296 296 295 295 296 298 296
307 307 307 308 307 305 293 296 300 295 293 290 289 289 291 292 295 297 297 297 296 293 294 298 298 297 295 295 292 294 293 290 287 284 292 292 287 292 295 298 299 299 294 298
307 307 307 307 307 307 300 295 297 293 288 290 290 292 294 293 295 293 297 299 296 299 303 300 298 300 299 298 297 296 292 289 286 284 288 279 291 299 301 298 299 302 303 301
305 307 306 306 308 308 301 299 296 295 289 291 292 292 294 295 296 295 296 299 303 305 300 296 293 291 290 295 298 297 296 289 285 283 285 289 293 296 297 294 294 303 302 305
304 305 305 305 307 308 303 295 295 294 291 290 294 291 294 292 293 294 296 301 307 302 298 293 287 287 289 289 292 297 296 293 287 284 283 278 291 299 302 299 289 304 305 304
304 304 305 306 307 308 304 298 299 295 293 295 294 290 291 297 296 293 295 297 298 301 293 290 289 289 295 288 288 288 289 287 282 285 286 289 297 303 304 286 289 301 302 302
304 304 304 305 307 308 304 298 299 298 295 295 298 298 293 295 295 291 296 294 295 294 289 291 291 291 293 293 295 292 290 285 283 287 285 282 301 301 293 295 298 302 301 301
304 304 304 305 307 308 307 293 297 300 296 295 300 302 302 300 301 296 295 296 296 299 293 294 295 293 294 292 287 300 290 293 287 289 290 297 299 296 298 298 298 299 299 299
304 304 305 306 306 307 305 299 296 296 293 293 295 297 303 303 302 303 293 296 299 300 303 298 296 291 295 288 291 296 298 300 292 291 295 295 297 299 299 300 299 299 299 297
304 304 305 307 307 307 306 299 296 295 292 290 292 301 300 305 304 304 301 299 300 302 302 297 295 292 297 292 295 294 298 299 294 292 296 297 298 299 299 299 299 298 298 297
305 305 306 307 307 307 305 298 298 297 293 288 290 297 300 302 303 301 301 297 296 294 294 295 292 296 295 295 295 291 297 296 292 291 297 295 296 300 301 298 298 298 296 294
305 306 306 307 307 306 296 292 298 298 297 294 288 295 297 300 301 299 298 298 295 293 293 292 295 297 293 290 289 296 299 300 300 296 299 298 298 299 300 297 295 295 294 293
304 305 306 306 307 302 293 290 295 301 296 292 289 288 295 299 297 296 296 296 293 293 291 292 292 293 295 292 288 295 300 300 300 300 299 294 295 292 294 294 293 293 291 291
305 305 306 307 307 303 297 300 303 299 294 293 284 287 290 297 292 291 293 291 292 292 290 292 291 293 293 289 294 295 297 296 296 295 295 294 294 293 293 293 292 289 288 288
305 306 307 301 298 293 295 307 308 296 295 287 288 285 281 296 292 292 292 290 287 290 289 290 291 289 288 293 293 294 293 292 291 292 292 291 289 289 290 290 289 287 287 286
305 298 294 290 294 305 304 298 294 293 292 290 287 290 287 292 289 287 288 289 285 283 287 292 288 290 296 293 292 292 293 293 292 290 288 288 287 287 287 287 288 287 286 285
293 289 288 294 302 296 292 287 287 287 286 288 288 289 288 293 288 287 289 284 286 281 284 287 287 287 289 291 291 291 291 290 289 289 288 287 287 287 287 287 287 286 285 284
295 297 301 294 293 289 287 284 287 286 284 289 287 289 290 291 291 288 287 287 287 282 288 285 283 290 289 291 290 290 289 289 288 288 287 287 287 286 286 285 284 284 285 285
301 298 294 291 287 280 284 277 283 282 287 289 289 286 288 290 290 287 286 284 281 288 284 286 286 288 289 291 290 289 289 288 287 286 287 287 285 285 285 284 284 283 282 283
294 288 279 285 288 285 284 284 285 288 289 293 293 287 286 288 287 287 285 286 286 283 282 283 285 286 289 291 291 289 287 287 287 286 286 285 284 282 283 283 284 283 281 280
290 287 281 285 289 289 289 289 288 292 291 292 290 287 287 285 287 287 285 284 281 282 284 287 287 288 290 290 289 288 287 286 285 285 284 284 283 282 281 281 282 283 281 280
293 291 285 289 290 292 289 290 289 293 289 293 291 288 286 284 287 285 283 281 281 286 291 288 287 288 290 289 289 288 288 286 284 284 284 284 282 281 280 280 280 281 281 279
291 285 288 289 289 290 291 291 290 292 290 290 287 286 283 286 285 283 288 283 286 292 290 289 289 289 289 289 289 288 287 285 284 283 283 283 283 282 280 280 280 282 282 283

GFSNW_sfc_thetae_138.txt.gz
Theta_e
307 307 308 308 307 306 302 294 285 298 300 292 293 287 291 294 293 296 289 291 291 289 290 288 288 291 295 301 300 293 294 290 286 288 291 293 287 286 285 280 282 282 281 281
307 307 307 307 307 306 299 293 291 299 299 286 287 292 292 294 294 295 291 287 291 293 289 287 291 293 301 301 299 293 293 286 282 285 288 289 286 288 287 286 287 284 280 281
307 307 307 307 307 306 295 289 284 291 293 296 290 289 291 290 297 296 297 296 293 292 290 292 291 295 300 301 300 306 299 288 283 281 285 286 284 288 289 287 281 283 285 288
307 307 307 307 306 306 294 289 285 294 287 289 291 292 291 290 291 297 297 294 295 294 289 292 293 296 297 300 303 298 292 289 290 290 290 289 287 287 290 287 287 285 288 291
306 307 307 307 306 306 291 290 290 290 291 292 291 292 290 290 292 294 292 292 296 295 291 292 291 293 293 294 296 294 294 288 290 289 294 294 292 292 291 290 292 294 293 293
305 306 306 306 306 305 296 296 295 293 290 290 289 289 290 292 294 296 297 295 295 293 293 296 298 298 295 294 293 292 291 289 285 285 291 291 287 290 292 294 296 295 290 294
304 305 305 306 306 306 300 297 296 291 287 290 289 291 292 292 294 293 297 297 296 299 302 300 300 299 298 298 296 295 291 287 285 283 285 280 291 297 299 296 299 300 299 301
304 304 305 306 306 307 301 300 296 294 288 290 290 290 291 294 295 295 296 298 303 303 300 296 290 291 293 295 296 294 293 289 284 282 281 289 293 296 296 293 295 302 300 302
303 304 304 304 306 307 303 295 297 295 290 288 294 291 291 291 292 294 296 301 305 302 296 291 284 284 288 289 291 295 294 291 288 281 279 278 290 298 302 299 290 303 305 304
303 304 304 305 306 307 304 299 295 296 292 293 294 290 290 293 294 292 294 296 297 300 292 290 288 288 292 286 286 287 287 285 283 285 284 287 297 301 302 287 289 303 305 306
303 304 304 305 305 307 304 299 297 297 294 294 295 296 291 292 293 289 294 294 295 294 289 291 291 290 292 293 294 291 287 283 286 288 280 281 299 300 292 293 297 302 301 297
303 304 304 305 305 307 306 295 296 298 295 293 297 300 301 299 300 294 294 295 296 297 293 294 295 292 293 292 287 296 287 290 287 288 286 293 295 296 298 298 299 298 297 298
303 304 305 306 306 306 306 300 295 293 294 292 292 294 301 301 300 300 293 295 299 300 303 298 295 290 294 289 291 295 296 298 290 290 292 293 294 297 297 298 298 298 299 296
303 303 305 306 306 306 306 299 294 295 292 289 290 299 298 303 301 300 300 299 300 302 301 296 294 291 297 292 294 293 296 298 291 291 294 295 295 296 297 296 297 296 296 295
303 305 306 306 306 306 304 301 296 295 291 287 289 296 299 300 301 300 298 297 297 297 296 294 292 296 295 295 294 292 297 295 291 287 295 293 293 298 299 296 295 296 294 292
303 305 306 306 306 306 295 290 295 296 295 293 288 293 295 298 300 298 297 297 295 295 295 293 296 298 295 290 288 296 298 299 299 294 297 295 295 296 297 294 294 294 293 292
303 304 305 306 306 302 292 290 294 300 294 294 290 287 294 296 297 296 295 295 293 293 292 292 294 294 295 292 287 295 296 297 298 299 299 293 293 290 292 292 292 292 290 290
304 305 306 306 306 302 295 299 303 298 293 292 284 286 289 295 291 291 293 291 293 292 290 293 291 293 294 287 294 296 295 294 294 294 294 292 292 292 291 291 290 288 287 287
304 305 305 300 296 291 293 305 304 296 294 286 286 284 281 294 290 290 291 290 287 291 289 290 291 290 287 292 293 292 293 292 290 291 291 291 289 289 289 289 288 287 286 286
303 296 293 289 293 304 303 295 292 292 290 289 285 287 285 290 289 286 288 288 285 284 287 292 290 289 292 292 292 292 292 292 291 289 287 287 287 287 287 287 287 287 286 285
293 291 288 294 301 294 290 286 286 286 285 287 287 287 286 291 287 286 288 284 285 281 285 286 285 285 289 291 289 290 290 290 288 288 287 287 287 286 286 286 286 285 285 283
296 297 300 296 292 288 286 283 286 285 284 288 286 287 288 289 289 286 287 286 286 282 288 284 281 287 289 289 288 288 288 288 287 287 286 286 286 286 285 284 283 283 284 284
300 298 293 291 286 279 284 277 282 280 286 287 287 286 286 289 289 286 284 284 281 288 284 285 285 287 289 288 288 287 287 287 287 286 286 286 284 285 284 283 283 283 282 282
293 286 278 283 283 284 283 283 284 287 287 289 292 286 285 286 286 285 284 285 285 282 282 284 285 286 288 289 289 287 286 286 285 285 284 283 282 281 282 282 283 282 281 281
290 286 278 284 287 287 287 288 287 291 289 292 288 286 285 284 285 286 284 283 281 282 283 286 285 287 289 288 287 286 285 285 284 284 283 283 282 281 280 281 281 281 282 281
291 287 284 286 286 288 287 287 288 294 290 293 290 288 285 282 283 285 283 281 280 283 291 285 286 288 288 287 287 287 286 284 283 283 283 282 281 280 280 281 281 281 281 280
290 284 286 286 286 286 288 289 289 289 289 290 287 285 286 285 285 284 287 282 283 288 286 289 290 289 288 287 287 287 286 284 283 283 282 282 282 281 280 280 281 280 281 283

GFSNW_sfc_thetae_141.txt.gz
Theta_e
307 307 308 308 307 305 302 299 293 303 305 294 294 288 291 295 295 298 289 290 290 288 291 290 289 289 293 298 299 294 297 295 289 291 296 297 295 292 293 289 287 291 292 292
306 306 307 307 306 306 299 294 295 305 304 287 287 292 293 295 295 295 293 288 292 294 290 288 291 291 300 299 299 297 298 293 286 288 291 295 292 293 294 296 295 290 288 292
305 306 306 306 306 306 300 296 290 296 298 298 290 289 291 291 297 296 297 295 294 293 291 293 289 289 298 300 301 306 303 295 292 287 289 292 290 291 294 294 290 291 292 296
305 306 306 306 306 306 300 297 291 294 288 290 291 293 292 289 290 296 296 293 294 294 292 293 292 295 297 300 302 302 299 293 294 294 293 293 292 291 293 292 294 290 294 297
304 305 306 306 306 306 298 292 291 294 290 293 292 292 290 289 290 293 291 291 294 296 292 293 292 295 295 294 300 299 301 295 295 291 294 293 292 294 294 294 295 297 298 299
303 304 306 306 306 305 297 298 298 294 292 291 291 291 290 290 293 294 296 295 295 294 296 299 299 300 299 299 299 299 298 296 295 289 295 294 290 295 294 296 299 300 296 302
303 304 305 306 306 306 302 299 296 292 287 290 290 292 293 293 294 292 296 297 296 300 304 303 302 301 300 300 300 301 296 297 296 292 294 284 297 303 302 299 302 304 304 306
304 304 305 306 306 307 304 301 297 294 288 291 293 293 293 295 297 295 296 297 301 303 301 299 295 296 298 299 298 298 301 299 294 292 292 294 297 300 300 299 300 306 306 307
304 304 305 305 305 306 305 301 300 296 290 291 294 292 295 292 292 294 296 300 304 303 300 296 290 289 292 292 296 301 301 301 298 294 290 287 296 301 305 305 298 307 308 306
304 304 305 305 305 306 305 300 301 297 292 296 296 294 293 297 295 293 296 296 297 302 297 293 292 290 295 290 291 293 294 294 292 291 291 294 300 303 306 296 299 309 309 308
303 304 305 305 306 307 306 301 303 298 293 294 297 299 296 297 297 291 296 295 296 294 291 293 294 292 294 293 296 295 293 292 292 293 291 289 301 304 299 302 311 311 311 309
303 303 304 305 306 307 307 299 302 302 295 295 301 301 302 302 302 297 298 296 296 298 293 295 297 294 296 295 290 300 293 296 293 294 294 298 300 300 305 307 311 310 307 304
303 303 304 305 306 307 306 302 302 299 295 295 297 300 304 306 304 305 296 299 300 301 302 298 297 291 296 293 293 297 299 300 295 295 296 296 299 301 305 309 307 307 304 303
302 303 304 305 306 306 306 300 302 298 295 289 295 303 302 307 306 305 303 302 303 302 302 297 295 292 297 292 294 295 297 299 294 293 296 298 298 299 301 302 303 302 301 302
302 303 304 305 306 305 305 302 304 303 298 292 294 301 304 305 306 304 303 302 300 300 295 294 292 296 296 296 295 292 299 296 296 293 298 297 296 299 300 299 298 299 298 297
303 304 305 305 305 306 301 298 302 303 302 295 290 301 301 303 304 303 302 301 302 301 297 294 297 298 296 290 288 294 297 298 300 295 298 298 297 297 297 297 296 295 294 295
303 303 304 305 306 304 300 297 301 302 303 296 292 294 301 301 302 302 301 300 298 298 298 295 296 296 296 291 287 293 295 297 297 300 298 292 293 291 294 293 293 294 294 295
303 303 305 305 306 305 303 305 305 304 300 299 291 293 297 301 298 297 299 296 298 296 295 297 294 297 295 287 293 294 294 293 294 294 295 293 293 294 293 295 296 293 292 292
302 304 304 305 303 300 301 305 304 304 300 295 294 291 290 300 297 298 298 296 293 297 294 294 296 290 285 288 293 293 295 295 292 293 294 294 293 293 294 294 293 293 292 291
303 300 298 295 299 304 305 301 300 300 298 297 294 295 292 296 297 296 295 296 291 290 292 296 292 289 292 292 294 295 295 295 296 293 291 292 291 291 291 291 292 292 291 290
299 295 293 299 303 301 297 293 293 294 292 295 296 295 293 299 294 294 294 292 293 288 290 291 288 288 290 292 292 294 295 294 293 293 292 292 292 291 290 290 290 290 289 289
297 297 300 299 297 294 291 290 292 292 290 295 294 294 296 297 298 294 295 291 292 286 293 289 286 290 291 291 291 292 292 292 291 292 290 290 290 290 289 289 288 288 288 288
301 298 294 292 292 287 287 284 288 289 293 295 296 293 295 297 297 295 292 289 288 293 290 287 290 291 292 291 290 290 291 291 290 289 289 288 288 288 288 287 287 287 286 286
294 290 284 287 288 290 290 291 292 294 295 296 296 295 294 295 294 294 289 291 291 287 284 286 291 292 292 292 292 291 289 290 289 288 287 286 286 285 286 286 286 286 285 285
290 290 283 287 293 294 294 295 295 295 295 296 295 294 294 294 292 293 291 288 285 287 287 293 293 293 293 292 292 291 290 289 288 288 287 286 285 285 284 285 286 285 285 285
292 290 289 291 292 294 295 295 295 297 297 296 296 292 290 290 291 289 286 286 284 289 295 295 294 293 293 292 292 291 290 290 289 288 287 286 285 285 284 285 285 285 285 284
292 290 293 292 293 293 295 298 298 298 296 292 293 288 288 292 288 286 289 289 292 296 295 293 295 294 293 294 292 291 290 289 288 287 287 286 285 286 285 282 283 285 285 284

GFSNW_sfc_thetae_144.txt.gz
Theta_e
305 306 306 306 306 305 305 305 299 309 313 296 295 290 292 296 296 298 290 289 291 291 291 291 291 290 293 298 298 294 296 297 291 293 300 301 298 295 297 291 290 296 294 295
305 306 306 306 306 305 305 300 301 310 309 288 289 293 294 296 294 294 293 290 293 295 293 289 293 294 300 300 299 297 300 294 288 289 295 298 295 296 298 300 300 294 292 294
305 306 306 306 306 305 307 300 294 302 303 299 292 290 292 292 297 295 296 295 296 295 293 296 292 293 299 300 301 301 302 299 294 289 292 297 293 295 298 299 294 295 296 299
304 306 306 306 305 305 307 299 296 295 291 294 294 295 293 290 290 295 296 293 294 295 288 287 291 296 298 299 303 303 302 296 297 297 298 297 295 294 295 296 297 295 298 300
305 306 306 306 306 305 304 296 293 295 291 296 295 294 292 291 293 293 291 290 295 297 293 294 294 297 298 297 302 302 304 296 298 294 297 297 294 295 295 296 296 296 300 304
304 305 306 306 306 306 301 300 301 295 294 297 295 293 293 294 296 295 295 295 298 296 297 300 303 305 303 303 299 299 301 299 296 291 295 295 291 294 295 297 299 300 297 306
304 305 306 306 306 306 305 301 299 293 292 295 294 296 296 295 296 292 296 299 296 299 305 305 305 303 302 303 302 304 300 301 299 292 294 286 300 303 300 298 300 303 307 311
304 305 305 306 306 306 304 305 301 295 290 294 297 297 296 300 300 296 297 298 300 304 306 301 295 295 296 297 300 302 304 302 299 293 292 298 301 304 302 301 301 307 308 312
304 304 305 306 307 307 307 307 308 298 293 296 298 297 298 295 295 297 298 302 306 305 306 300 293 291 294 292 296 304 307 306 301 298 291 288 301 306 309 309 299 310 312 311
303 304 305 306 306 308 306 306 309 298 293 300 300 298 297 300 297 296 298 300 299 304 301 297 295 293 298 293 293 296 300 302 297 296 295 298 305 306 309 297 303 313 314 313
303 303 305 305 306 307 307 306 310 300 295 299 302 303 301 301 300 294 298 299 298 298 293 293 296 295 297 297 298 298 297 296 297 299 295 292 305 307 303 309 316 316 315 314
303 303 304 305 306 307 307 304 309 305 296 299 305 306 308 306 305 300 301 298 296 298 294 294 298 296 299 298 294 303 296 300 299 298 295 301 306 307 311 316 314 314 315 315
302 303 304 305 306 306 306 304 305 302 297 301 303 304 308 311 310 310 298 302 302 300 302 298 299 295 298 296 297 300 302 305 300 302 299 302 306 310 315 316 314 315 316 315
303 303 304 304 305 306 306 303 307 301 299 294 300 309 307 311 313 310 309 305 308 304 302 297 296 294 300 294 298 297 299 304 300 297 301 303 304 307 310 313 314 313 314 312
303 304 304 305 305 306 306 307 308 308 302 295 298 306 308 311 311 309 309 308 307 301 296 293 291 296 296 297 296 291 298 300 300 295 302 301 300 305 306 306 307 307 306 302
303 304 304 304 304 305 306 303 310 311 309 297 295 306 306 308 310 308 308 309 306 303 297 294 296 300 296 291 289 293 297 302 303 298 302 302 302 302 302 300 300 300 299 300
303 303 304 304 305 305 304 302 306 306 310 298 294 299 306 307 308 310 308 307 305 303 299 296 295 296 296 291 287 292 295 297 298 301 301 297 298 294 296 296 297 299 299 299
303 303 304 305 305 305 305 310 306 308 305 304 296 298 301 307 302 302 306 302 304 301 299 300 296 296 294 287 292 295 295 295 294 294 295 295 295 296 295 296 296 295 294 295
303 303 304 308 307 305 307 307 307 311 306 299 300 295 294 305 303 305 305 305 297 303 296 296 298 291 284 289 293 296 296 294 295 297 297 297 295 296 298 299 298 296 296 296
303 305 303 301 306 305 307 306 304 303 305 304 298 303 296 301 301 303 300 303 297 294 296 300 293 288 291 294 296 297 299 299 300 296 294 295 294 295 295 296 297 296 296 296
306 301 300 304 307 307 304 298 297 300 296 301 303 300 296 305 298 298 301 298 299 293 294 295 291 289 292 296 296 298 298 299 298 297 297 297 296 294 294 293 293 293 294 293
299 298 301 302 303 300 295 295 298 295 295 300 298 299 300 303 305 300 302 295 298 289 299 293 288 292 294 294 295 295 296 295 295 295 295 294 294 294 294 294 293 293 293 292
303 299 295 297 297 288 289 287 293 294 298 301 301 299 301 304 303 300 299 291 293 301 294 289 291 294 295 295 294 295 295 295 294 293 293 293 292 292 292 291 292 292 291 291
296 292 287 290 291 293 295 297 297 299 302 301 300 299 300 302 299 300 292 296 297 290 288 288 293 294 294 295 296 295 294 294 294 292 292 291 290 290 290 290 291 291 289 289
292 292 286 290 298 300 302 303 302 302 303 300 297 299 299 299 296 298 296 290 288 290 289 295 297 297 296 295 296 294 294 294 293 293 291 290 290 290 289 290 290 289 287 286
294 291 290 296 296 297 299 300 301 303 303 302 300 295 293 293 296 291 290 289 286 292 296 299 299 298 298 297 296 295 294 294 293 293 291 291 290 289 289 288 287 287 287 285
292 292 297 297 297 297 302 303 305 305 300 296 297 290 290 298 292 288 293 291 296 299 299 300 300 299 298 298 296 295 294 294 294 293 292 291 290 291 289 286 285 287 286 286

GFSNW_sfc_thetae_147.txt.gz
Theta_e
306 307 307 307 306 305 308 309 301 313 315 300 298 294 295 297 296 298 292 290 291 291 296 293 292 292 295 300 299 295 299 294 291 294 300 302 300 298 300 295 294 298 296 296
306 307 307 307 306 305 305 304 305 314 312 293 292 297 296 297 295 295 293 290 293 297 294 291 295 296 298 300 298 298 298 294 290 290 294 298 297 300 301 301 302 297 295 298
306 306 307 307 306 305 308 303 297 303 306 303 295 294 295 293 299 297 296 294 296 294 295 298 294 295 297 300 300 302 298 297 296 288 292 297 295 297 300 301 296 296 298 300
305 306 307 307 306 305 308 303 299 300 295 298 297 298 296 292 293 297 297 293 297 293 287 291 295 298 299 300 302 301 296 296 298 298 299 298 297 297 298 299 300 296 300 302
305 306 307 307 306 305 308 299 297 300 295 300 298 297 296 293 295 294 292 293 298 297 293 297 296 300 300 298 300 299 306 298 298 295 299 297 296 297 299 299 299 302 302 305
304 306 307 307 307 306 305 305 305 299 298 300 299 296 297 296 298 297 296 297 296 295 297 301 306 308 305 305 302 303 302 298 295 292 298 296 292 297 299 299 300 303 300 310
304 306 306 307 307 306 304 304 304 298 295 298 298 299 300 298 298 296 299 299 296 299 308 310 307 305 303 305 305 304 296 299 301 295 296 287 298 302 302 299 300 305 308 313
304 304 305 307 307 308 306 308 303 299 294 298 298 300 300 302 302 300 300 301 303 308 304 301 296 294 296 298 303 304 307 303 300 294 294 295 298 300 299 298 298 307 310 313
304 304 305 306 307 307 308 309 308 301 295 298 301 300 301 299 299 301 302 305 310 309 309 295 292 291 294 295 299 305 306 308 302 297 292 288 299 304 308 305 296 308 313 315
304 304 304 305 306 308 308 309 314 302 294 302 303 300 298 303 301 298 303 302 304 308 300 296 295 293 299 293 294 297 299 302 298 295 295 299 307 309 311 297 301 312 317 316
303 304 304 305 306 307 307 307 314 305 297 301 304 306 303 303 303 298 303 300 302 298 295 293 297 297 299 298 298 298 298 297 298 300 295 292 309 309 302 313 315 317 318 317
303 304 304 305 305 306 307 306 310 310 298 301 308 309 311 310 309 305 305 300 302 300 295 295 295 298 302 301 295 304 296 300 298 297 297 305 311 312 317 321 317 318 317 317
303 303 304 304 305 306 306 305 308 306 302 304 306 306 310 314 314 315 303 306 305 302 302 298 297 297 301 297 298 301 303 308 300 301 302 307 313 317 317 318 317 317 318 315
302 303 304 305 305 305 305 304 309 307 303 299 303 311 309 313 315 313 314 310 311 305 302 296 296 295 301 297 298 297 300 303 302 300 304 308 308 311 314 317 318 316 316 314
303 303 304 305 305 305 306 310 310 312 303 297 300 308 312 313 313 312 313 311 308 302 296 293 291 297 297 299 298 291 296 299 298 296 304 304 303 307 313 313 313 314 311 311
303 304 304 304 304 304 308 307 312 314 310 300 297 308 308 310 311 310 309 310 307 307 296 294 296 299 296 292 289 293 298 304 305 300 304 302 301 303 306 308 309 309 310 309
302 303 303 304 304 306 304 305 308 306 312 299 295 301 308 310 310 308 308 310 307 305 300 296 296 296 296 292 288 293 295 298 301 303 303 299 298 295 299 300 302 303 302 300
303 303 303 304 305 305 304 310 307 308 307 303 296 299 304 309 304 301 311 304 305 304 300 300 296 294 293 286 291 295 295 296 296 299 301 301 300 298 297 298 298 296 297 298
303 304 304 307 307 307 309 307 308 312 307 300 301 297 296 309 304 306 304 307 301 305 298 297 298 290 285 289 292 293 295 295 295 297 297 298 297 296 297 297 297 295 295 297
303 305 306 303 309 305 308 308 303 302 304 303 299 305 298 303 302 304 304 302 299 295 298 301 292 287 291 296 298 298 299 298 298 295 294 294 295 297 297 298 299 299 298 298
307 305 304 308 308 309 306 300 298 301 298 302 303 302 298 307 299 299 304 301 300 294 295 294 291 289 293 297 297 300 301 301 301 300 299 298 297 295 295 296 297 297 298 297
301 301 303 306 305 302 296 295 298 297 295 301 300 301 303 303 307 302 301 298 298 290 300 295 289 292 296 296 297 297 298 298 297 297 296 296 296 296 296 296 295 295 295 295
305 301 297 301 300 289 290 288 293 296 300 302 302 300 302 304 306 301 300 293 295 302 295 291 292 295 296 296 295 294 297 297 296 296 296 296 295 295 296 294 294 295 293 293
297 295 288 293 292 293 294 296 298 302 305 303 303 298 300 302 301 300 293 298 300 292 289 289 294 296 296 297 297 295 294 295 295 295 295 294 294 293 294 294 294 293 292 292
294 295 289 293 298 300 301 302 302 303 306 304 302 300 300 301 297 298 297 292 290 292 290 295 297 298 298 297 297 296 295 295 295 295 295 294 293 293 292 293 293 291 290 289
296 294 293 298 297 297 299 301 301 304 304 306 301 295 294 293 297 293 291 290 289 294 298 298 300 299 299 299 298 297 296 297 296 296 295 294 293 293 292 291 290 289 288 287
293 294 298 298 299 298 301 303 305 306 300 295 296 291 291 300 293 289 296 294 295 300 299 300 301 301 301 300 299 297 296 297 297 296 295 294 295 295 291 287 287 288 288 287